Location: Newark
(39.6867°N, 100.6772°W)
Time: 13:27:08
(UTC+00:00)

Altair - Visible Passes

Search period start: 21 October 2019 00:00
Search period end: 31 October 2019 00:00
Orbit: 1501 x 1682 km, 47.2° (Epoch: 20 October)

Date Brightness Start Highest point End Pass type
(mag) Time Alt. Az. Time Alt. Az. Time Alt. Az.
21 Oct 8.6 00:33:38 10° WNW 00:43:10 50° SW 00:52:47 10° SSE visible
21 Oct 9.9 02:43:10 10° WSW 02:46:15 12° WSW 02:49:19 10° SW visible
22 Oct 8.5 00:08:23 10° WNW 00:18:01 54° SW 00:27:45 10° SSE visible
22 Oct 9.8 02:16:49 10° W 02:21:13 14° WSW 02:25:36 10° SSW visible
23 Oct 9.8 01:50:52 10° W 01:56:10 16° WSW 02:01:30 10° SSW visible
24 Oct 9.8 01:25:05 10° W 01:31:07 18° SW 01:37:11 10° SSW visible
25 Oct 9.8 00:59:26 10° W 01:06:04 20° SW 01:12:45 10° SSW visible
26 Oct 9.8 00:33:53 10° W 00:41:00 22° SW 00:48:11 10° S visible
27 Oct 9.8 00:08:24 10° WNW 00:15:55 25° SW 00:23:33 10° S visible
29 Oct 9.9 12:31:38 10° SSE 12:36:57 17° SE 12:42:20 10° E visible
30 Oct 10.0 12:07:24 10° SSE 12:11:56 15° ESE 12:16:32 10° E visible
